KLM47T EHAM-EGFF

Flight info

Callsign KLM47T
Flight time 0h 51m
Altitude 38000
Route IDRID L980 LAM L179 ICTAM
Aircraft E190/M-SDE3GILORVW/S

Departure

Time 2026-05-07 17:13
Airport Amsterdam Airport Schiphol (EHAM)

Arrival

Time 2026-05-07 18:04
Airport Cardiff International Airport (EGFF)
Time Latitude Longitude Altitude Speed Heading
2026-05-07 17:12 52.33561 4.55661 6975 ft 266 kts 246°
2026-05-07 17:13 52.32851 4.52862 7724 ft 267 kts 245°
2026-05-07 17:13 52.32117 4.50030 8394 ft 271 kts 245°
2026-05-07 17:13 52.31357 4.47186 9100 ft 276 kts 245°
2026-05-07 17:13 52.30566 4.44294 9825 ft 280 kts 245°
2026-05-07 17:14 52.29752 4.41348 10265 ft 296 kts 245°
2026-05-07 17:14 52.28829 4.38236 10617 ft 313 kts 244°
2026-05-07 17:14 52.27837 4.34962 10970 ft 329 kts 243°
2026-05-07 17:14 52.26814 4.31585 11594 ft 335 kts 244°
2026-05-07 17:15 52.25797 4.28147 12335 ft 338 kts 244°
2026-05-07 17:15 52.24783 4.24679 13175 ft 340 kts 244°
2026-05-07 17:15 52.23761 4.21195 14067 ft 342 kts 244°
2026-05-07 17:15 52.22720 4.17666 14790 ft 346 kts 244°
2026-05-07 17:16 52.21657 4.14121 15504 ft 350 kts 244°
2026-05-07 17:16 52.20572 4.10548 16264 ft 354 kts 244°
2026-05-07 17:16 52.19465 4.06951 17057 ft 356 kts 243°
2026-05-07 17:16 52.18331 4.03327 17763 ft 360 kts 243°
2026-05-07 17:17 52.17560 4.00916 18196 ft 365 kts 243°
2026-05-07 17:17 52.16367 3.97244 18872 ft 368 kts 242°
2026-05-07 17:17 52.15159 3.93552 19513 ft 370 kts 242°
2026-05-07 17:17 52.13539 3.88651 20361 ft 372 kts 242°
2026-05-07 17:18 52.12283 3.84929 20856 ft 378 kts 241°
2026-05-07 17:18 52.11002 3.81192 21431 ft 380 kts 241°
2026-05-07 17:18 52.10130 3.78668 21866 ft 380 kts 241°
2026-05-07 17:18 52.08816 3.74892 22357 ft 384 kts 240°
2026-05-07 17:19 52.07475 3.71091 22851 ft 389 kts 240°
2026-05-07 17:19 52.06116 3.67265 23427 ft 392 kts 240°
2026-05-07 17:19 52.04741 3.63419 23939 ft 396 kts 240°
2026-05-07 17:19 52.03345 3.59550 24408 ft 399 kts 239°
2026-05-07 17:20 52.01928 3.55662 24943 ft 401 kts 239°
2026-05-07 17:20 52.00497 3.51770 25461 ft 403 kts 239°
2026-05-07 17:20 51.98962 3.47965 26136 ft 397 kts 234°
2026-05-07 17:20 51.97348 3.44401 27116 ft 388 kts 234°
2026-05-07 17:21 51.95749 3.40884 27677 ft 388 kts 234°
2026-05-07 17:21 51.94161 3.37399 28069 ft 391 kts 234°
2026-05-07 17:21 51.92520 3.33790 28432 ft 395 kts 234°
2026-05-07 17:21 51.90885 3.30196 28843 ft 397 kts 234°
2026-05-07 17:22 51.89264 3.26634 29294 ft 398 kts 234°
2026-05-07 17:22 51.87620 3.23028 29755 ft 399 kts 234°
2026-05-07 17:22 51.86005 3.19374 30203 ft 399 kts 238°
2026-05-07 17:22 51.84906 3.15225 30352 ft 406 kts 257°
2026-05-07 17:23 51.84511 3.10712 30746 ft 405 kts 262°
2026-05-07 17:23 51.84193 3.06171 30974 ft 409 kts 263°
2026-05-07 17:23 51.83889 3.01586 31233 ft 411 kts 263°
2026-05-07 17:23 51.83586 2.96997 31565 ft 411 kts 263°
2026-05-07 17:24 51.83281 2.92379 31704 ft 415 kts 263°
2026-05-07 17:24 51.82975 2.87735 32038 ft 415 kts 263°
2026-05-07 17:24 51.82683 2.83102 32406 ft 414 kts 263°
2026-05-07 17:24 51.82396 2.78482 32746 ft 412 kts 263°
2026-05-07 17:25 51.82088 2.73879 33078 ft 411 kts 262°
2026-05-07 17:25 51.81763 2.69285 33370 ft 411 kts 262°
2026-05-07 17:25 51.81432 2.64697 33670 ft 411 kts 262°
2026-05-07 17:25 51.81115 2.60115 33969 ft 410 kts 263°
2026-05-07 17:26 51.80805 2.55557 34185 ft 411 kts 263°
2026-05-07 17:26 51.80489 2.50968 34162 ft 410 kts 262°
2026-05-07 17:26 51.79849 2.41808 34072 ft 410 kts 262°
2026-05-07 17:27 51.79201 2.32658 34076 ft 410 kts 262°
2026-05-07 17:27 51.78546 2.23520 34079 ft 407 kts 262°
2026-05-07 17:28 51.77972 2.14431 34071 ft 407 kts 264°
2026-05-07 17:28 51.77457 2.05335 34074 ft 407 kts 264°
2026-05-07 17:29 51.76918 1.96243 34071 ft 407 kts 263°
2026-05-07 17:29 51.76368 1.87174 34073 ft 405 kts 263°
2026-05-07 17:30 51.75812 1.78115 34080 ft 406 kts 263°
2026-05-07 17:30 51.75248 1.69051 34077 ft 406 kts 263°
2026-05-07 17:31 51.74678 1.59993 34071 ft 406 kts 263°
2026-05-07 17:31 51.74104 1.50941 34072 ft 405 kts 263°
2026-05-07 17:32 51.73525 1.41897 34077 ft 405 kts 263°
2026-05-07 17:32 51.72936 1.32886 34077 ft 404 kts 263°
2026-05-07 17:33 51.72344 1.23926 34073 ft 404 kts 263°
2026-05-07 17:33 51.71742 1.14907 34074 ft 405 kts 263°
2026-05-07 17:34 51.71121 1.05736 34096 ft 417 kts 263°
2026-05-07 17:34 51.70474 0.96285 34079 ft 430 kts 263°
2026-05-07 17:35 51.69808 0.86654 34069 ft 434 kts 263°
2026-05-07 17:35 51.69132 0.77007 34076 ft 434 kts 263°
2026-05-07 17:36 51.68446 0.67339 34072 ft 434 kts 263°
2026-05-07 17:36 51.67752 0.57679 34070 ft 434 kts 263°
2026-05-07 17:37 51.67051 0.48012 34076 ft 434 kts 263°
2026-05-07 17:37 51.66343 0.38392 34060 ft 433 kts 262°
2026-05-07 17:38 51.65632 0.28822 34048 ft 433 kts 262°
2026-05-07 17:38 51.64908 0.19198 34050 ft 433 kts 262°
2026-05-07 17:39 51.64105 0.09595 34057 ft 433 kts 259°
2026-05-07 17:39 51.63017 0.00071 34045 ft 432 kts 259°
2026-05-07 17:40 51.61964 -0.09458 34047 ft 433 kts 259°
2026-05-07 17:40 51.61042 -0.19082 34052 ft 433 kts 262°
2026-05-07 17:41 51.60304 -0.28635 34047 ft 433 kts 262°
2026-05-07 17:41 51.59511 -0.38292 34049 ft 433 kts 262°
2026-05-07 17:42 51.58705 -0.47860 33662 ft 426 kts 262°
2026-05-07 17:42 51.58312 -0.52485 33451 ft 410 kts 261°
2026-05-07 17:42 51.57926 -0.57011 32822 ft 407 kts 261°
2026-05-07 17:43 51.57541 -0.61490 32317 ft 404 kts 261°
2026-05-07 17:43 51.57154 -0.65977 31753 ft 405 kts 261°
2026-05-07 17:43 51.56764 -0.70474 31227 ft 408 kts 261°
2026-05-07 17:43 51.56369 -0.75010 30680 ft 410 kts 261°
2026-05-07 17:44 51.55973 -0.79554 30115 ft 412 kts 261°
2026-05-07 17:44 51.55577 -0.84061 29590 ft 412 kts 261°
2026-05-07 17:44 51.55174 -0.88628 29014 ft 415 kts 261°
2026-05-07 17:44 51.54770 -0.93193 28505 ft 415 kts 261°
2026-05-07 17:45 51.54363 -0.97775 27949 ft 412 kts 261°
2026-05-07 17:45 51.53957 -1.02320 27382 ft 410 kts 261°
2026-05-07 17:45 51.53552 -1.06831 26869 ft 406 kts 261°
2026-05-07 17:45 51.53148 -1.11304 26334 ft 404 kts 261°
2026-05-07 17:46 51.52840 -1.15746 26136 ft 399 kts 268°
2026-05-07 17:46 51.53142 -1.20183 26121 ft 403 kts 278°
2026-05-07 17:46 51.53645 -1.24613 25994 ft 403 kts 279°
2026-05-07 17:46 51.54180 -1.29051 26008 ft 404 kts 279°
2026-05-07 17:47 51.54712 -1.33492 26023 ft 405 kts 279°
2026-05-07 17:47 51.55241 -1.37931 26007 ft 405 kts 279°
2026-05-07 17:47 51.55768 -1.42380 26008 ft 405 kts 279°
2026-05-07 17:47 51.56292 -1.46831 26013 ft 406 kts 279°
2026-05-07 17:48 51.56814 -1.51286 26003 ft 405 kts 279°
2026-05-07 17:48 51.57334 -1.55729 26008 ft 405 kts 279°
2026-05-07 17:48 51.57852 -1.60177 26016 ft 405 kts 279°
2026-05-07 17:48 51.58367 -1.64626 25836 ft 407 kts 279°
2026-05-07 17:49 51.58834 -1.69095 25653 ft 402 kts 276°
2026-05-07 17:49 51.59142 -1.73568 25233 ft 404 kts 274°
2026-05-07 17:49 51.59420 -1.78037 24780 ft 399 kts 274°
2026-05-07 17:49 51.59712 -1.82451 24366 ft 395 kts 275°
2026-05-07 17:50 51.60014 -1.86834 23952 ft 393 kts 275°
2026-05-07 17:50 51.60322 -1.91198 23521 ft 392 kts 275°
2026-05-07 17:50 51.60629 -1.95535 23125 ft 390 kts 275°
2026-05-07 17:50 51.60935 -1.99865 22650 ft 389 kts 275°
2026-05-07 17:51 51.60880 -2.04164 22178 ft 383 kts 256°
2026-05-07 17:51 51.59834 -2.08089 21701 ft 380 kts 236°
2026-05-07 17:51 51.58225 -2.11396 21185 ft 377 kts 230°
2026-05-07 17:51 51.56561 -2.14640 20683 ft 374 kts 231°
2026-05-07 17:52 51.54969 -2.17922 20166 ft 372 kts 232°
2026-05-07 17:52 51.53389 -2.21182 19703 ft 368 kts 232°
2026-05-07 17:52 51.51808 -2.24388 19188 ft 364 kts 231°
2026-05-07 17:52 51.50229 -2.27557 18728 ft 364 kts 231°
2026-05-07 17:53 51.48642 -2.30726 18215 ft 362 kts 231°
2026-05-07 17:53 51.47073 -2.33849 17763 ft 358 kts 231°
2026-05-07 17:53 51.45514 -2.36949 17282 ft 356 kts 231°
2026-05-07 17:53 51.43962 -2.40033 16823 ft 354 kts 231°
2026-05-07 17:54 51.42419 -2.43092 16330 ft 352 kts 231°
2026-05-07 17:54 51.40977 -2.46161 15875 ft 349 kts 240°
2026-05-07 17:54 51.40182 -2.49866 15461 ft 346 kts 257°
2026-05-07 17:54 51.39841 -2.53496 14940 ft 323 kts 262°
2026-05-07 17:55 51.39584 -2.56937 14540 ft 300 kts 261°
2026-05-07 17:55 51.39306 -2.60187 14160 ft 281 kts 260°
2026-05-07 17:55 51.39021 -2.63186 13452 ft 276 kts 259°
2026-05-07 17:55 51.38711 -2.66256 12426 ft 282 kts 259°
2026-05-07 17:56 51.38388 -2.69372 11383 ft 286 kts 259°
2026-05-07 17:56 51.38060 -2.72532 10300 ft 290 kts 259°
2026-05-07 17:56 51.37705 -2.75731 9100 ft 294 kts 258°
2026-05-07 17:56 51.37329 -2.78964 7820 ft 298 kts 258°
2026-05-07 17:57 51.36944 -2.82248 6485 ft 303 kts 258°
2026-05-07 17:57 51.36679 -2.84500 5506 ft 307 kts 258°
2026-05-07 17:57 51.36184 -2.88798 4844 ft 280 kts 258°
2026-05-07 17:57 51.35842 -2.91745 4476 ft 260 kts 258°
2026-05-07 17:58 51.35522 -2.94497 4179 ft 245 kts 257°
2026-05-07 17:58 51.35218 -2.97101 3873 ft 230 kts 256°
2026-05-07 17:58 51.34937 -2.99522 3614 ft 212 kts 257°
2026-05-07 17:58 51.34674 -3.01784 3382 ft 203 kts 256°
2026-05-07 17:59 51.34417 -3.03962 3136 ft 196 kts 256°
2026-05-07 17:59 51.34167 -3.06061 2910 ft 189 kts 256°
2026-05-07 17:59 51.33928 -3.08069 2736 ft 177 kts 257°
2026-05-07 17:59 51.33724 -3.09938 2698 ft 157 kts 261°
2026-05-07 18:00 51.33731 -3.11533 3076 ft 139 kts 266°
2026-05-07 18:00 51.33680 -3.13134 3210 ft 155 kts 261°
2026-05-07 18:00 51.33621 -3.14934 2795 ft 163 kts 271°
2026-05-07 18:00 51.34035 -3.16632 2465 ft 164 kts 298°
2026-05-07 18:01 51.34586 -3.18162 2267 ft 153 kts 291°
2026-05-07 18:01 51.35015 -3.19663 2069 ft 145 kts 290°
2026-05-07 18:01 51.35479 -3.21109 1907 ft 148 kts 294°
2026-05-07 18:01 51.35953 -3.22585 1722 ft 150 kts 292°
2026-05-07 18:02 51.36890 -3.25563 1289 ft 149 kts 293°
2026-05-07 18:02 51.37356 -3.27029 1077 ft 147 kts 292°
2026-05-07 18:02 51.37808 -3.28467 862 ft 143 kts 293°
2026-05-07 18:03 51.38252 -3.29856 710 ft 136 kts 296°
2026-05-07 18:03 51.38667 -3.31198 511 ft 132 kts 298°
2026-05-07 18:03 51.39086 -3.32492 326 ft 132 kts 296°
2026-05-07 18:03 51.39353 -3.33358 237 ft 131 kts 297°
2026-05-07 18:04 51.39709 -3.34488 223 ft 90 kts 297°
2026-05-07 18:04 51.39900 -3.35096 223 ft 36 kts 297°
2026-05-07 18:04 51.40004 -3.35423 220 ft 26 kts 296°
2026-05-07 18:04 51.40066 -3.35519 218 ft 11 kts
2026-05-07 18:05 51.40127 -3.35465 221 ft 9 kts 44°
2026-05-07 18:05 51.40156 -3.35369 222 ft 10 kts 85°
2026-05-07 18:05 51.40136 -3.35251 222 ft 12 kts 116°
2026-05-07 18:05 51.40095 -3.35123 222 ft 14 kts 116°
2026-05-07 18:06 51.40049 -3.34976 222 ft 16 kts 117°
2026-05-07 18:06 51.39997 -3.34811 222 ft 17 kts 116°
2026-05-07 18:06 51.39940 -3.34630 222 ft 19 kts 116°
2026-05-07 18:06 51.39879 -3.34430 220 ft 21 kts 117°
2026-05-07 18:07 51.39831 -3.34285 220 ft 10 kts 116°
2026-05-07 18:07 51.39827 -3.34193 220 ft 8 kts 80°
2026-05-07 18:07 51.39831 -3.34135 220 ft 4 kts 83°
2026-05-07 18:07 51.39835 -3.34089 220 ft 2 kts 82°
2026-05-07 18:08 51.39836 -3.34075 222 ft 0 kts 82°